| time (UTC) | temp F | wind direction | speed MPH | gust MPH | rain 1hr in | rain 24hr in | rain mn in | humidity % | barometer mb |
| 20260904194608 | 98 | 178 | 1.0 | 6.0 | 0.00 | 0.00 | 0.00 | 64 | 1015.8 |
| 20260904193053 | 96 | 336 | 0.0 | 4.0 | 0.00 | 0.00 | 0.00 | 68 | 1016.1 |
| 20260904191551 | 97 | 21 | 2.0 | 7.0 | 0.00 | 0.00 | 0.00 | 65 | 1016.2 |
| 20260904190040 | 96 | 353 | 4.0 | 8.0 | 0.00 | 0.00 | 0.00 | 65 | 1016.4 |
| 20260904184534 | 97 | 6 | 4.0 | 8.0 | 0.00 | 0.00 | 0.00 | 65 | 1016.4 |
| 20260904183030 | 96 | 306 | 0.0 | 7.0 | 0.00 | 0.00 | 0.00 | 66 | 1016.4 |
| 20260904181522 | 96 | 353 | 2.0 | 9.0 | 0.00 | 0.00 | 0.00 | 67 | 1016.5 |
| 20260904180015 | 95 | 347 | 1.0 | 7.0 | 0.00 | 0.00 | 0.00 | 70 | 1016.7 |
| 20260904174516 | 95 | 242 | 0.0 | 8.0 | 0.00 | 0.00 | 0.00 | 68 | 1016.8 |
| 20260904173005 | 95 | 282 | 1.0 | 8.0 | 0.00 | 0.00 | 0.00 | 69 | 1017.0 |
| 20260904171609 | 95 | 348 | 3.0 | 8.0 | 0.00 | 0.00 | 0.00 | 69 | 1017.2 |
| 20260904170052 | 94 | 301 | 3.0 | 7.0 | 0.00 | 0.00 | 0.00 | 71 | 1017.2 |
| 20260904164553 | 94 | 298 | 4.0 | 7.0 | 0.00 | 0.00 | 0.00 | 71 | 1017.4 |
| 20260904163041 | 93 | 345 | 7.0 | 11.0 | 0.00 | 0.00 | 0.00 | 71 | 1017.4 |
| 20260904161539 | 92 | 320 | 2.0 | 8.0 | 0.00 | 0.00 | 0.00 | 73 | 1017.4 |
| 20260904160028 | 92 | 277 | 3.0 | 8.0 | 0.00 | 0.00 | 0.00 | 74 | 1017.5 |
| 20260904154522 | 91 | 348 | 2.0 | 8.0 | 0.00 | 0.00 | 0.00 | 76 | 1017.5 |
| 20260904153020 | 90 | 350 | 3.0 | 10.0 | 0.00 | 0.00 | 0.00 | 76 | 1017.5 |
| 20260904151512 | 89 | 357 | 3.0 | 8.0 | 0.00 | 0.00 | 0.00 | 77 | 1017.5 |
| 20260904150024 | 89 | 357 | 1.0 | 7.0 | 0.00 | 0.00 | 0.00 | 78 | 1017.5 |
| 20260904144505 | 88 | 15 | 1.0 | 6.0 | 0.00 | 0.00 | 0.00 | 78 | 1017.5 |
| 20260904143002 | 88 | 260 | 2.0 | 4.0 | 0.00 | 0.00 | 0.00 | 78 | 1017.5 |
| 20260904141609 | 87 | 303 | 1.0 | 6.0 | 0.00 | 0.00 | 0.00 | 79 | 1017.3 |
| 20260904140055 | 87 | 315 | 2.0 | 6.0 | 0.00 | 0.00 | 0.00 | 79 | 1017.2 |
| 20260904134557 | 86 | 242 | 1.0 | 4.0 | 0.00 | 0.00 | 0.00 | 79 | 1017.3 |
| 20260904133046 | 84 | 216 | 2.0 | 4.0 | 0.00 | 0.00 | 0.00 | 80 | 1017.2 |
| 20260904131643 | 84 | 230 | 0.0 | 4.0 | 0.00 | 0.00 | 0.00 | 80 | 1017.3 |
| 20260904130040 | 83 | 251 | 0.0 | 5.0 | 0.00 | 0.00 | 0.00 | 80 | 1017.3 |
| 20260904124538 | 81 | 216 | 0.0 | 1.0 | 0.00 | 0.00 | 0.00 | 81 | 1017.2 |
| 20260904123036 | 78 | 153 | 0.0 | 1.0 | 0.00 | 0.00 | 0.00 | 84 | 1017.2 |
| 20260904121533 | 0 | 0.0 | 0.0 | 0.00 | 0.00 | 0.00 | 1017.2 | ||
| 20260904120027 | 0 | 0.0 | 0.0 | 0.00 | 0.00 | 0.00 | 1017.2 | ||
| 20260904114531 | 0 | 0.0 | 0.0 | 0.00 | 0.00 | 0.00 | 1016.9 | ||
| 20260904113017 | 0 | 0.0 | 0.0 | 0.00 | 0.00 | 0.00 | 1016.9 | ||
| 20260904111522 | 0 | 0.0 | 0.0 | 0.00 | 0.00 | 0.00 | 1016.6 | ||
| 20260904110007 | 0 | 0.0 | 0.0 | 0.00 | 0.00 | 0.00 | 1016.6 | ||
| 20260904104601 | 0 | 0.0 | 0.0 | 0.00 | 0.00 | 0.00 | 1016.5 | ||
| 20260904103056 | 0 | 0.0 | 0.0 | 0.00 | 0.00 | 0.00 | 1016.4 | ||
| 20260904101551 | 0 | 0.0 | 0.0 | 0.00 | 0.00 | 0.00 | 1016.3 | ||
| 20260904100050 | 78 | 152 | 0.0 | 0.0 | 0.00 | 0.00 | 0.00 | 88 | 1016.1 |
| 20260904094545 | 78 | 155 | 0.0 | 0.0 | 0.00 | 0.00 | 0.00 | 88 | 1015.8 |
| 20260904093042 | 78 | 162 | 0.0 | 0.0 | 0.00 | 0.00 | 0.00 | 89 | 1015.9 |
| 20260904091539 | 79 | 156 | 0.0 | 3.0 | 0.00 | 0.00 | 0.00 | 88 | 1015.9 |
| 20260904090036 | 79 | 164 | 1.0 | 3.0 | 0.00 | 0.00 | 0.00 | 88 | 1015.8 |
| 20260904084531 | 79 | 173 | 2.0 | 4.0 | 0.00 | 0.00 | 0.00 | 88 | 1015.8 |
| 20260904083038 | 80 | 175 | 2.0 | 4.0 | 0.00 | 0.00 | 0.00 | 87 | 1015.6 |
| 20260904081525 | 80 | 163 | 1.0 | 2.0 | 0.00 | 0.00 | 0.00 | 87 | 1015.6 |
| 20260904080023 | 80 | 163 | 2.0 | 3.0 | 0.00 | 0.00 | 0.00 | 87 | 1015.6 |
| 20260904074520 | 80 | 157 | 2.0 | 4.0 | 0.00 | 0.00 | 0.00 | 87 | 1015.6 |
| 20260904073023 | 80 | 162 | 1.0 | 3.0 | 0.00 | 0.00 | 0.00 | 88 | 1015.6 |
| 20260904071517 | 80 | 164 | 0.0 | 1.0 | 0.00 | 0.00 | 0.00 | 88 | 1015.7 |
| 20260904070011 | 81 | 169 | 0.0 | 1.0 | 0.00 | 0.00 | 0.00 | 87 | 1015.6 |
| 20260904064506 | 82 | 170 | 0.0 | 3.0 | 0.00 | 0.00 | 0.00 | 86 | 1015.7 |
| 20260904063123 | 82 | 168 | 1.0 | 4.0 | 0.00 | 0.00 | 0.00 | 86 | 1015.6 |
| 20260904061604 | 82 | 161 | 1.0 | 4.0 | 0.00 | 0.00 | 0.00 | 86 | 1015.8 |
| 20260904060101 | 82 | 159 | 0.0 | 2.0 | 0.00 | 0.00 | 0.00 | 87 | 1015.7 |
| 20260904054558 | 82 | 156 | 1.0 | 3.0 | 0.00 | 0.00 | 0.00 | 87 | 1015.7 |
| 20260904053054 | 83 | 153 | 1.0 | 4.0 | 0.00 | 0.00 | 0.00 | 86 | 1015.7 |
| 20260904051556 | 83 | 185 | 2.0 | 5.0 | 0.00 | 0.00 | 0.00 | 86 | 1015.5 |
| 20260904050048 | 84 | 180 | 1.0 | 4.0 | 0.00 | 0.00 | 0.00 | 85 | 1015.4 |
| 20260904044544 | 84 | 173 | 3.0 | 6.0 | 0.00 | 0.00 | 0.00 | 85 | 1015.5 |
| 20260904043046 | 85 | 160 | 3.0 | 7.0 | 0.00 | 0.00 | 0.00 | 84 | 1015.6 |
| 20260904041539 | 85 | 163 | 2.0 | 6.0 | 0.00 | 0.00 | 0.00 | 83 | 1015.6 |
| 20260904040038 | 85 | 151 | 2.0 | 4.0 | 0.00 | 0.00 | 0.00 | 83 | 1015.5 |
| 20260904034542 | 86 | 182 | 2.0 | 6.0 | 0.00 | 0.00 | 0.00 | 82 | 1015.5 |
| 20260904033033 | 86 | 135 | 2.0 | 4.0 | 0.00 | 0.00 | 0.00 | 81 | 1015.4 |
| 20260904031532 | 87 | 190 | 0.0 | 5.0 | 0.00 | 0.00 | 0.00 | 80 | 1015.4 |
| 20260904030031 | 87 | 171 | 2.0 | 5.0 | 0.00 | 0.00 | 0.00 | 80 | 1015.4 |
| 20260904024528 | 87 | 167 | 1.0 | 5.0 | 0.00 | 0.00 | 0.00 | 80 | 1015.3 |
| 20260904023026 | 87 | 181 | 0.0 | 3.0 | 0.00 | 0.00 | 0.00 | 80 | 1015.1 |
| 20260904021528 | 87 | 176 | 0.0 | 4.0 | 0.00 | 0.00 | 0.00 | 79 | 1015.1 |
| 20260904020024 | 87 | 148 | 1.0 | 3.0 | 0.00 | 0.00 | 0.00 | 79 | 1014.9 |
| 20260904014521 | 88 | 161 | 1.0 | 3.0 | 0.00 | 0.00 | 0.00 | 79 | 1014.7 |
| 20260904013019 | 88 | 176 | 0.0 | 1.0 | 0.00 | 0.00 | 0.00 | 78 | 1014.6 |
| 20260904011519 | 89 | 169 | 0.0 | 2.0 | 0.00 | 0.00 | 0.00 | 77 | 1014.6 |
| 20260904010016 | 89 | 168 | 0.0 | 2.0 | 0.00 | 0.00 | 0.00 | 76 | 1014.4 |
| 20260904004513 | 90 | 163 | 0.0 | 1.0 | 0.00 | 0.00 | 0.00 | 75 | 1014.4 |
| 20260904003019 | 91 | 171 | 0.0 | 2.0 | 0.00 | 0.00 | 0.00 | 73 | 1014.3 |
| 20260904001514 | 93 | 179 | 0.0 | 2.0 | 0.00 | 0.00 | 0.00 | 72 | 1014.1 |
| 20260904000007 | 94 | 171 | 1.0 | 4.0 | 0.00 | 0.00 | 0.00 | 69 | 1014.0 |
| 20260903234506 | 95 | 171 | 2.0 | 5.0 | 0.00 | 0.00 | 0.00 | 68 | 1014.1 |
| 20260903233005 | 96 | 256 | 1.0 | 7.0 | 0.00 | 0.00 | 0.00 | 67 | 1014.0 |
| 20260903231515 | 97 | 160 | 1.0 | 4.0 | 0.00 | 0.00 | 0.00 | 64 | 1014.0 |
| 20260903230002 | 97 | 287 | 1.0 | 5.0 | 0.00 | 0.00 | 0.00 | 63 | 1014.0 |
| 20260903224504 | 98 | 137 | 2.0 | 7.0 | 0.00 | 0.00 | 0.00 | 62 | 1014.0 |
| 20260903223059 | 99 | 157 | 2.0 | 9.0 | 0.00 | 0.00 | 0.00 | 63 | 1013.9 |
| 20260903221559 | 99 | 175 | 0.0 | 6.0 | 0.00 | 0.00 | 0.00 | 61 | 1014.0 |
| 20260903220054 | 98 | 321 | 1.0 | 4.0 | 0.00 | 0.00 | 0.00 | 61 | 1013.9 |
| 20260903214607 | 100 | 254 | 0.0 | 6.0 | 0.00 | 0.00 | 0.00 | 60 | 1014.1 |
| 20260903213058 | 100 | 290 | 2.0 | 6.0 | 0.00 | 0.00 | 0.00 | 60 | 1014.0 |
| 20260903211545 | 99 | 246 | 3.0 | 9.0 | 0.00 | 0.00 | 0.00 | 59 | 1014.3 |
| 20260903210059 | 99 | 165 | 2.0 | 8.0 | 0.00 | 0.00 | 0.00 | 61 | 1014.3 |
| 20260903204546 | 98 | 126 | 1.0 | 7.0 | 0.00 | 0.00 | 0.00 | 62 | 1014.5 |
| 20260903203041 | 98 | 167 | 5.0 | 10.0 | 0.00 | 0.00 | 0.00 | 62 | 1014.6 |
| 20260903201536 | 99 | 246 | 2.0 | 6.0 | 0.00 | 0.00 | 0.00 | 61 | 1014.8 |
| 20260903200031 | 99 | 282 | 2.0 | 6.0 | 0.00 | 0.00 | 0.00 | 62 | 1014.9 |